Temp
70 71 70 69 69 70 70 71 69 69 70 70 70 70 70 69 67 65 64 64 64 64 65 65 66 66 66 66 66 65 65 66 65 64 64 65 66 65 65 65 64 64 63 63 63 63 63 63 63 62 62 61 61 61 61 61 61 61 60 60 60 60 60 59 59 58 58 58 59
70 71 70 67 67 69 70 70 69 68 67 68 69 70 70 69 67 66 65 65 65 66 66 66 67 67 67 66 66 66 65 65 65 65 64 65 66 65 65 64 64 63 63 63 63 63 62 62 62 62 62 61 61 61 61 61 61 60 60 60 60 60 60 59 59 59 59 58 59
68 70 71 70 70 70 70 70 69 67 66 68 69 69 69 68 67 66 66 66 67 67 67 67 67 67 67 67 66 66 66 66 65 65 65 65 65 65 65 64 64 63 62 62 62 62 62 62 62 61 61 61 61 61 61 61 61 60 60 60 60 60 60 59 59 59 59 59 59
67 69 71 71 71 70 70 69 67 66 66 68 69 70 69 67 67 67 67 67 68 68 68 68 68 68 67 67 66 66 66 65 65 65 65 65 65 65 65 64 64 63 63 62 62 62 62 62 61 61 60 61 61 61 61 61 61 60 60 60 60 60 60 59 59 59 59 59 59
66 68 71 71 70 70 69 68 66 66 66 68 69 69 68 67 67 67 67 67 67 68 68 69 68 68 67 67 66 66 66 65 63 64 65 65 65 64 64 64 64 63 63 62 62 61 61 62 61 61 60 60 60 61 61 62 61 60 60 60 60 60 60 59 59 59 59 59 58
69 70 71 71 70 69 68 68 67 67 67 68 68 68 68 67 67 67 67 68 68 68 68 67 67 67 67 67 66 66 65 65 64 65 65 64 64 64 63 64 63 63 63 62 62 61 60 61 60 60 60 61 61 61 62 62 61 60 60 60 60 60 60 59 59 59 59 58 58
73 73 73 72 70 69 68 68 68 68 68 68 68 68 68 68 68 68 68 68 68 68 67 66 66 67 67 67 66 65 65 64 64 64 64 64 63 63 63 63 63 63 63 62 62 61 61 60 60 60 59 59 60 61 61 61 60 60 59 59 60 59 59 59 59 59 58 58 57
74 74 74 73 71 69 69 69 69 68 68 68 68 68 67 67 67 67 67 67 67 67 67 66 67 67 67 67 66 65 64 64 64 64 64 63 63 63 63 63 63 62 62 62 62 62 61 60 60 60 60 60 60 60 60 60 59 59 59 59 59 59 59 58 58 58 57 57 56
75 75 74 73 71 70 69 69 69 68 67 67 67 67 67 66 66 66 66 66 67 67 67 67 67 67 67 66 66 65 64 64 63 63 63 63 62 63 63 62 62 62 62 62 62 62 61 60 60 60 60 60 60 60 59 58 58 57 58 59 59 59 59 58 58 58 57 56 55
75 75 74 73 71 70 69 69 69 69 68 68 68 67 66 64 65 66 66 66 67 67 67 67 67 67 66 66 65 64 64 64 63 63 63 63 63 63 63 62 62 62 62 62 62 62 61 60 59 59 60 60 60 59 58 57 57 57 57 58 58 58 58 58 58 58 57 56 55
75 75 74 73 72 71 70 70 70 70 69 69 69 68 66 64 65 66 66 67 67 67 67 67 67 66 66 66 65 64 64 63 63 63 63 63 63 63 63 62 62 62 62 62 62 61 60 59 59 59 59 60 60 59 58 57 57 57 57 57 58 58 58 58 58 58 57 57 55
76 75 75 74 73 72 71 70 71 71 70 70 70 68 67 66 66 66 67 68 67 67 67 67 66 66 66 66 65 64 64 64 64 64 64 64 64 64 63 63 62 63 63 62 61 61 60 59 59 59 60 60 59 59 58 58 57 57 57 57 57 57 57 57 57 58 58 57 56
76 76 75 75 73 72 71 71 71 71 71 70 69 68 67 67 67 67 68 68 67 67 67 67 66 66 66 66 65 64 64 64 64 64 64 64 64 64 63 63 63 63 62 62 61 60 60 59 59 60 60 60 59 58 58 58 57 57 57 56 57 57 57 57 57 57 57 57 55
76 76 76 75 74 73 72 71 71 71 71 69 69 69 69 68 68 68 68 68 68 67 67 67 66 65 65 65 64 64 64 64 65 65 64 64 64 63 63 63 63 62 62 61 60 60 60 59 59 59 60 59 59 58 58 57 57 57 57 56 56 56 56 56 56 56 55 54 54
76 76 75 75 74 73 72 72 71 71 70 69 69 69 70 70 69 68 68 68 68 67 67 66 64 63 63 63 64 65 65 65 65 65 64 64 63 63 62 62 62 62 62 60 59 58 59 59 59 59 59 59 59 58 58 57 57 56 56 56 56 55 55 55 55 55 54 53 53
75 75 75 75 74 73 72 71 71 71 70 70 70 71 71 71 70 69 67 67 67 66 66 65 63 63 62 63 64 65 65 65 65 65 64 64 63 63 62 62 62 62 61 60 58 57 57 58 58 59 59 58 58 58 58 57 56 56 55 55 55 55 55 55 55 54 54 53 53
75 75 75 75 73 72 71 71 71 71 71 71 71 71 71 71 70 68 66 66 66 66 65 63 62 62 63 63 64 65 65 65 64 64 64 63 63 62 62 62 62 62 61 60 58 58 58 58 57 58 58 57 57 57 57 57 56 55 55 55 55 55 54 54 54 54 53 53 52
74 74 74 73 72 71 71 70 71 71 71 71 72 71 71 70 69 67 65 64 64 64 63 62 62 63 63 64 64 64 64 64 64 64 63 63 63 63 62 62 62 62 61 60 59 58 58 59 58 57 57 57 56 56 56 56 55 55 55 54 54 54 54 54 54 54 54 53 52
73 73 72 72 71 70 70 69 70 71 71 71 72 71 70 69 68 66 64 63 62 62 61 61 62 63 64 64 64 63 63 63 63 63 63 63 63 63 63 63 62 62 61 60 59 59 59 58 58 57 57 56 56 56 56 56 55 55 55 54 55 55 55 55 55 55 54 54 53
71 71 71 70 69 69 69 69 69 70 71 71 71 70 69 68 66 64 62 62 61 60 61 61 62 63 64 64 64 63 62 62 62 63 63 63 63 63 63 62 62 61 60 60 59 59 59 59 58 57 56 55 55 55 55 55 55 55 55 54 55 55 55 55 55 55 55 54 54
69 69 69 69 68 68 68 68 69 69 69 69 69 68 67 67 65 63 61 61 60 60 61 61 62 63 64 64 64 63 62 61 62 62 62 62 62 62 62 61 61 61 60 59 59 59 59 59 58 57 56 55 54 54 54 54 54 54 54 54 55 55 55 55 55 55 54 54 54
68 68 68 67 66 66 67 67 68 68 68 68 68 67 66 65 63 62 60 60 60 60 60 61 62 63 63 64 63 62 61 60 61 61 62 62 61 61 61 60 60 60 60 60 59 59 59 58 57 56 55 54 54 54 54 54 54 54 54 54 55 55 55 55 54 54 53 53 53
66 66 66 64 64 64 65 66 66 66 66 67 66 65 64 62 61 60 60 59 59 59 60 61 62 63 64 64 63 62 61 60 60 60 61 61 61 61 61 60 60 59 59 59 59 59 58 56 55 55 54 54 54 55 54 53 53 53 54 54 54 55 55 54 54 53 53 53 53
64 64 64 64 63 63 63 64 64 64 64 64 64 62 61 61 61 60 60 59 59 60 61 62 63 63 63 64 63 62 61 60 60 60 60 61 60 60 60 59 58 58 58 57 56 55 54 53 54 54 54 54 55 54 54 53 53 53 53 53 54 54 53 53 53 52 52 52 52
64 64 64 64 64 63 63 63 63 63 64 64 63 63 62 62 62 61 60 60 60 61 62 63 64 63 62 61 62 61 60 60 60 59 59 60 60 59 59 58 58 57 56 54 49 47 47 48 51 53 55 55 54 53 53 52 53 53 53 52 52 52 52 51 51 51 51 52 52
66 66 66 66 66 65 65 64 65 65 65 64 64 64 64 63 63 62 61 60 60 61 62 63 63 61 59 60 60 60 59 59 59 59 59 59 58 58 58 57 56 54 52 50 44 42 43 44 45 48 51 54 54 53 52 52 52 52 52 51 51 50 50 49 49 50 50 51 52
67 67 67 67 67 67 66 66 66 65 65 65 64 64 64 64 63 62 61 60 60 60 61 61 61 58 57 59 59 59 58 58 59 59 59 58 58 57 57 56 55 53 50 46 42 41 41 42 42 43 46 52 52 52 52 52 51 51 51 50 49 49 48 48 49 49 49 50 51
67 67 67 68 67 67 67 67 66 66 66 65 65 65 64 64 63 62 60 59 59 59 60 60 60 58 56 56 57 57 58 58 57 57 57 58 57 57 56 55 55 52 48 43 41 40 41 41 41 41 42 46 49 51 51 51 51 50 49 49 48 48 48 48 48 49 50 50 51
67 67 67 67 67 67 67 67 66 66 66 66 65 65 64 63 62 61 60 58 58 58 58 58 57 56 55 54 55 56 57 57 57 56 56 57 56 56 56 56 54 50 45 41 41 40 40 40 40 40 40 42 47 50 51 51 51 50 49 48 48 48 48 48 48 49 49 50 51
67 67 67 67 67 67 67 67 66 66 66 66 65 64 63 61 61 60 59 58 57 57 57 56 55 54 53 53 54 55 55 56 56 56 56 56 56 55 55 54 54 50 45 40 40 40 40 40 40 39 39 40 44 48 50 51 50 49 48 48 48 48 48 48 48 49 49 50 51
68 67 67 67 67 67 66 66 66 66 65 65 64 63 62 60 60 59 58 57 57 56 55 55 54 53 53 53 54 55 55 55 56 56 56 55 54 54 54 54 54 51 46 39 40 40 40 40 39 39 38 38 42 46 49 50 50 49 48 48 48 48 48 48 48 49 49 50 51
68 68 67 67 67 66 66 66 65 65 64 64 63 62 61 60 60 59 58 57 56 55 55 54 54 53 53 54 54 55 55 56 56 56 55 55 55 54 54 53 54 51 46 39 39 40 40 39 39 39 38 37 41 44 47 48 49 48 48 48 48 48 48 48 48 49 50 51 51
67 67 67 67 66 66 65 65 64 63 62 62 61 61 60 60 60 60 59 57 55 54 54 54 54 53 53 54 54 55 55 56 56 55 54 53 54 53 53 53 55 51 45 38 39 39 39 39 39 38 38 37 40 44 46 47 48 48 48 48 48 48 48 48 49 50 51 52 52
67 67 67 66 66 65 64 63 62 61 61 61 60 60 60 60 60 59 59 58 56 55 54 54 54 54 54 55 54 55 55 55 55 55 54 53 53 53 54 54 56 50 42 38 38 38 39 39 38 38 37 36 40 43 45 46 47 47 47 47 47 48 48 49 49 51 51 52 52
66 66 66 65 64 63 62 62 61 61 60 60 60 60 60 60 60 60 59 57 56 55 55 55 55 55 55 55 55 55 54 53 53 53 52 52 53 53 54 54 55 48 40 38 38 38 38 38 38 38 37 37 40 42 45 46 46 46 46 46 47 47 48 49 50 51 52 52 52
65 64 64 63 63 62 62 61 61 60 60 59 59 59 60 60 60 60 59 57 57 56 56 55 55 55 55 55 55 54 53 52 51 51 51 52 53 54 54 54 55 48 40 38 38 38 38 38 38 38 38 39 41 43 44 45 45 45 46 46 46 48 49 50 51 51 51 51 51
65 63 62 61 62 61 61 61 60 60 59 58 59 59 60 60 60 60 59 58 57 56 56 55 55 55 55 54 53 52 52 52 51 51 51 52 53 53 53 53 54 49 42 38 38 38 38 38 38 38 38 40 42 43 44 44 44 45 46 46 47 49 50 50 51 51 51 50 50
64 63 61 61 61 61 61 60 59 59 59 59 59 60 60 60 60 60 58 57 57 57 56 55 55 54 54 53 52 52 52 53 52 51 51 52 52 53 53 52 54 51 46 39 38 38 38 38 38 38 39 41 42 42 42 43 44 45 46 48 49 50 50 51 51 51 50 49 47
63 63 62 61 61 61 61 60 59 58 58 59 59 60 60 60 60 59 58 57 58 57 56 54 54 53 53 51 52 52 52 53 53 52 51 51 52 51 51 52 54 53 49 41 38 37 38 38 38 38 38 40 42 42 43 43 44 46 48 49 49 50 50 51 51 50 50 49 45
63 62 62 62 61 61 61 60 60 59 59 59 59 60 60 59 58 57 57 56 56 55 54 53 53 53 52 51 52 53 53 53 53 52 51 51 51 49 49 51 52 52 49 42 38 37 38 38 38 38 38 40 42 43 44 44 45 46 48 49 49 49 49 50 50 50 49 49 46
63 62 61 61 61 60 60 60 60 59 59 59 59 59 58 57 56 55 55 55 55 54 54 54 54 54 53 51 52 52 52 52 51 51 51 51 51 49 48 49 50 51 49 44 39 38 38 38 38 38 38 40 43 45 46 46 45 46 47 48 49 48 48 49 49 49 49 49 48
MSLP
1018.82 1018.98 1019.18 1019.30 1019.38 1019.46 1019.50 1019.58 1019.66 1019.78 1019.94 1020.18 1020.34 1020.54 1020.74 1020.98 1021.22 1021.50 1021.78 1021.94 1022.10 1022.22 1022.34 1022.46 1022.58 1022.66 1022.78 1022.94 1023.10 1023.22 1023.30 1023.42 1023.54 1023.62 1023.70 1023.74 1023.86 1024.06 1024.26 1024.42 1024.58 1024.78 1024.98 1025.14 1025.26 1025.42 1025.54 1025.58 1025.58 1025.62 1025.66 1025.70 1025.70 1025.70 1025.74 1025.90 1025.98 1025.98 1025.98 1025.98 1025.98 1025.98 1026.02 1026.02 1026.02 1026.02 1026.02 1026.06 1026.14
1018.62 1018.78 1019.02 1019.18 1019.30 1019.30 1019.38 1019.42 1019.54 1019.74 1019.86 1020.02 1020.18 1020.38 1020.54 1020.78 1021.02 1021.30 1021.50 1021.62 1021.74 1021.90 1022.06 1022.18 1022.30 1022.38 1022.50 1022.66 1022.86 1023.02 1023.10 1023.18 1023.30 1023.46 1023.54 1023.62 1023.74 1023.90 1024.10 1024.30 1024.50 1024.70 1024.86 1024.98 1025.14 1025.30 1025.42 1025.46 1025.54 1025.54 1025.58 1025.58 1025.58 1025.58 1025.66 1025.78 1025.90 1025.90 1025.90 1025.90 1025.90 1025.94 1025.94 1025.94 1025.98 1025.98 1026.02 1026.02 1026.02
1018.42 1018.66 1018.90 1019.02 1019.06 1019.14 1019.18 1019.22 1019.38 1019.62 1019.86 1019.98 1020.14 1020.26 1020.42 1020.58 1020.82 1021.06 1021.26 1021.38 1021.46 1021.62 1021.78 1021.86 1021.98 1022.14 1022.26 1022.42 1022.62 1022.78 1022.90 1022.98 1023.10 1023.26 1023.34 1023.46 1023.58 1023.78 1023.98 1024.18 1024.38 1024.58 1024.74 1024.90 1025.02 1025.18 1025.26 1025.38 1025.46 1025.46 1025.46 1025.46 1025.46 1025.46 1025.46 1025.58 1025.74 1025.74 1025.74 1025.78 1025.78 1025.82 1025.86 1025.90 1025.90 1025.90 1025.90 1025.90 1025.94
1018.18 1018.46 1018.66 1018.70 1018.74 1018.78 1018.90 1019.02 1019.22 1019.46 1019.70 1019.86 1019.98 1020.10 1020.26 1020.46 1020.66 1020.86 1021.02 1021.14 1021.30 1021.38 1021.46 1021.54 1021.70 1021.86 1022.02 1022.18 1022.38 1022.58 1022.70 1022.82 1022.90 1023.02 1023.18 1023.30 1023.46 1023.62 1023.86 1024.06 1024.22 1024.42 1024.58 1024.74 1024.90 1025.02 1025.14 1025.26 1025.30 1025.38 1025.38 1025.38 1025.30 1025.30 1025.30 1025.42 1025.58 1025.62 1025.66 1025.66 1025.70 1025.70 1025.74 1025.74 1025.78 1025.82 1025.86 1025.86 1025.90
1017.86 1018.06 1018.26 1018.34 1018.38 1018.50 1018.66 1018.86 1019.14 1019.38 1019.58 1019.70 1019.82 1019.90 1020.06 1020.30 1020.46 1020.62 1020.74 1020.90 1021.02 1021.06 1021.18 1021.30 1021.42 1021.58 1021.82 1021.98 1022.18 1022.34 1022.54 1022.66 1022.78 1022.90 1022.98 1023.14 1023.30 1023.54 1023.74 1023.94 1024.06 1024.26 1024.46 1024.58 1024.74 1024.90 1025.02 1025.14 1025.22 1025.30 1025.30 1025.30 1025.26 1025.18 1025.18 1025.26 1025.38 1025.50 1025.54 1025.58 1025.58 1025.58 1025.62 1025.66 1025.70 1025.74 1025.78 1025.82 1025.82
1017.46 1017.62 1017.82 1017.98 1018.14 1018.30 1018.50 1018.74 1018.98 1019.22 1019.42 1019.54 1019.58 1019.66 1019.82 1020.06 1020.26 1020.38 1020.50 1020.58 1020.66 1020.82 1020.98 1021.18 1021.26 1021.42 1021.62 1021.82 1022.02 1022.18 1022.38 1022.54 1022.62 1022.74 1022.90 1023.02 1023.22 1023.42 1023.62 1023.82 1023.98 1024.14 1024.30 1024.46 1024.58 1024.74 1024.90 1025.02 1025.10 1025.18 1025.18 1025.18 1025.14 1025.06 1025.06 1025.14 1025.22 1025.30 1025.38 1025.46 1025.46 1025.50 1025.54 1025.58 1025.58 1025.62 1025.66 1025.74 1025.74
1017.02 1017.18 1017.38 1017.62 1017.90 1018.14 1018.34 1018.54 1018.82 1019.02 1019.22 1019.30 1019.34 1019.38 1019.50 1019.70 1019.86 1020.02 1020.18 1020.30 1020.46 1020.66 1020.90 1021.02 1021.18 1021.30 1021.42 1021.62 1021.82 1022.02 1022.18 1022.34 1022.50 1022.62 1022.74 1022.94 1023.10 1023.30 1023.46 1023.62 1023.86 1024.02 1024.14 1024.26 1024.42 1024.58 1024.74 1024.86 1024.98 1025.02 1025.06 1025.02 1025.02 1024.98 1024.98 1025.02 1025.10 1025.18 1025.18 1025.18 1025.26 1025.38 1025.46 1025.46 1025.46 1025.54 1025.58 1025.58 1025.58
1016.62 1016.82 1017.02 1017.30 1017.58 1017.90 1018.14 1018.30 1018.54 1018.78 1018.94 1019.02 1019.06 1019.10 1019.22 1019.42 1019.58 1019.78 1019.98 1020.14 1020.30 1020.50 1020.70 1020.86 1020.98 1021.06 1021.22 1021.42 1021.62 1021.86 1022.02 1022.22 1022.42 1022.54 1022.70 1022.86 1023.02 1023.18 1023.34 1023.54 1023.70 1023.82 1023.98 1024.10 1024.22 1024.34 1024.50 1024.70 1024.78 1024.86 1024.86 1024.90 1024.86 1024.82 1024.90 1024.94 1025.02 1025.02 1025.02 1024.98 1025.06 1025.18 1025.30 1025.38 1025.42 1025.46 1025.46 1025.46 1025.58
1016.34 1016.54 1016.74 1017.06 1017.34 1017.62 1017.86 1018.10 1018.26 1018.42 1018.58 1018.66 1018.74 1018.86 1019.02 1019.22 1019.42 1019.62 1019.86 1020.02 1020.18 1020.30 1020.46 1020.62 1020.74 1020.90 1021.06 1021.22 1021.46 1021.66 1021.86 1022.02 1022.26 1022.46 1022.58 1022.74 1022.90 1023.02 1023.18 1023.38 1023.54 1023.66 1023.78 1023.94 1024.06 1024.18 1024.30 1024.50 1024.58 1024.66 1024.70 1024.74 1024.70 1024.74 1024.78 1024.90 1024.94 1024.94 1024.90 1024.86 1024.86 1024.94 1025.06 1025.22 1025.30 1025.30 1025.30 1025.34 1025.46
1016.02 1016.18 1016.46 1016.78 1017.10 1017.38 1017.62 1017.86 1018.02 1018.14 1018.26 1018.38 1018.54 1018.74 1018.98 1019.18 1019.42 1019.58 1019.78 1019.94 1020.06 1020.18 1020.34 1020.46 1020.58 1020.74 1020.90 1021.06 1021.30 1021.50 1021.74 1021.94 1022.14 1022.30 1022.46 1022.58 1022.70 1022.86 1023.02 1023.18 1023.30 1023.46 1023.58 1023.70 1023.86 1023.98 1024.14 1024.30 1024.42 1024.46 1024.54 1024.58 1024.58 1024.66 1024.74 1024.86 1024.90 1024.86 1024.82 1024.74 1024.74 1024.78 1024.90 1025.02 1025.10 1025.18 1025.18 1025.22 1025.30
1015.66 1015.86 1016.18 1016.46 1016.74 1017.10 1017.38 1017.58 1017.74 1017.86 1018.02 1018.22 1018.42 1018.66 1018.90 1019.18 1019.46 1019.62 1019.78 1019.90 1020.02 1020.14 1020.22 1020.34 1020.50 1020.66 1020.82 1020.98 1021.18 1021.38 1021.58 1021.82 1022.02 1022.18 1022.26 1022.38 1022.54 1022.66 1022.82 1022.94 1023.10 1023.22 1023.34 1023.46 1023.66 1023.82 1024.02 1024.14 1024.26 1024.30 1024.38 1024.46 1024.58 1024.58 1024.66 1024.74 1024.78 1024.78 1024.74 1024.66 1024.62 1024.66 1024.70 1024.74 1024.86 1024.94 1025.02 1025.02 1025.14
1015.42 1015.62 1015.90 1016.18 1016.50 1016.82 1017.14 1017.34 1017.50 1017.66 1017.82 1018.02 1018.30 1018.58 1018.90 1019.18 1019.38 1019.58 1019.70 1019.82 1019.90 1020.02 1020.14 1020.30 1020.46 1020.58 1020.70 1020.86 1021.06 1021.30 1021.50 1021.70 1021.86 1021.94 1022.02 1022.18 1022.30 1022.46 1022.62 1022.74 1022.90 1023.02 1023.14 1023.26 1023.46 1023.66 1023.82 1023.94 1024.02 1024.14 1024.22 1024.30 1024.46 1024.54 1024.58 1024.66 1024.70 1024.66 1024.66 1024.62 1024.58 1024.54 1024.58 1024.58 1024.70 1024.74 1024.74 1024.82 1024.94
1015.18 1015.46 1015.70 1015.94 1016.30 1016.62 1016.90 1017.14 1017.30 1017.46 1017.62 1017.86 1018.14 1018.42 1018.74 1018.98 1019.18 1019.34 1019.50 1019.58 1019.74 1019.82 1019.98 1020.18 1020.38 1020.54 1020.62 1020.74 1020.98 1021.18 1021.38 1021.58 1021.66 1021.74 1021.86 1021.94 1022.06 1022.22 1022.38 1022.54 1022.66 1022.78 1022.90 1023.06 1023.30 1023.46 1023.58 1023.74 1023.86 1023.90 1023.98 1024.10 1024.26 1024.38 1024.46 1024.54 1024.58 1024.58 1024.50 1024.46 1024.46 1024.46 1024.42 1024.46 1024.50 1024.58 1024.62 1024.66 1024.74
1015.02 1015.26 1015.46 1015.74 1016.10 1016.42 1016.70 1016.90 1017.06 1017.22 1017.42 1017.66 1017.90 1018.18 1018.42 1018.62 1018.82 1019.02 1019.18 1019.30 1019.46 1019.62 1019.82 1020.02 1020.26 1020.46 1020.58 1020.66 1020.86 1021.02 1021.18 1021.30 1021.42 1021.50 1021.62 1021.74 1021.86 1022.02 1022.18 1022.26 1022.38 1022.46 1022.58 1022.78 1023.02 1023.26 1023.42 1023.54 1023.66 1023.74 1023.74 1023.86 1023.98 1024.18 1024.34 1024.46 1024.46 1024.46 1024.38 1024.30 1024.30 1024.30 1024.30 1024.34 1024.38 1024.46 1024.50 1024.58 1024.66
1014.94 1015.10 1015.30 1015.58 1015.86 1016.18 1016.42 1016.58 1016.78 1016.98 1017.18 1017.38 1017.58 1017.82 1018.02 1018.18 1018.38 1018.62 1018.86 1019.02 1019.22 1019.42 1019.62 1019.82 1020.02 1020.26 1020.42 1020.54 1020.66 1020.78 1020.94 1021.06 1021.18 1021.30 1021.42 1021.50 1021.66 1021.78 1021.90 1022.02 1022.10 1022.18 1022.30 1022.46 1022.78 1023.02 1023.18 1023.30 1023.46 1023.54 1023.58 1023.62 1023.74 1023.90 1024.10 1024.26 1024.34 1024.34 1024.30 1024.22 1024.18 1024.18 1024.22 1024.26 1024.30 1024.34 1024.42 1024.54 1024.58
1014.82 1014.94 1015.18 1015.38 1015.66 1015.90 1016.14 1016.34 1016.54 1016.74 1016.90 1017.06 1017.26 1017.46 1017.62 1017.78 1018.02 1018.30 1018.58 1018.82 1019.02 1019.18 1019.42 1019.58 1019.86 1020.06 1020.26 1020.38 1020.46 1020.58 1020.74 1020.90 1020.98 1021.06 1021.18 1021.30 1021.46 1021.58 1021.74 1021.82 1021.90 1021.98 1022.10 1022.30 1022.58 1022.82 1023.02 1023.18 1023.30 1023.38 1023.46 1023.50 1023.62 1023.74 1023.86 1024.02 1024.14 1024.18 1024.18 1024.18 1024.18 1024.14 1024.14 1024.18 1024.22 1024.30 1024.34 1024.42 1024.46
1014.74 1014.90 1015.02 1015.26 1015.46 1015.74 1015.98 1016.18 1016.30 1016.46 1016.62 1016.78 1016.94 1017.14 1017.34 1017.50 1017.74 1018.06 1018.34 1018.58 1018.78 1018.98 1019.18 1019.46 1019.66 1019.86 1020.02 1020.18 1020.30 1020.42 1020.54 1020.66 1020.74 1020.82 1020.90 1021.06 1021.26 1021.42 1021.54 1021.66 1021.78 1021.86 1022.02 1022.18 1022.46 1022.66 1022.86 1023.02 1023.18 1023.26 1023.30 1023.42 1023.50 1023.58 1023.70 1023.78 1023.90 1023.98 1024.06 1024.10 1024.10 1024.06 1024.06 1024.10 1024.18 1024.18 1024.26 1024.30 1024.34
1014.58 1014.74 1014.94 1015.14 1015.38 1015.58 1015.82 1016.02 1016.14 1016.26 1016.38 1016.58 1016.74 1016.90 1017.14 1017.34 1017.58 1017.86 1018.18 1018.38 1018.58 1018.78 1018.98 1019.26 1019.46 1019.58 1019.74 1019.86 1020.02 1020.22 1020.38 1020.46 1020.50 1020.58 1020.74 1020.86 1021.02 1021.18 1021.30 1021.50 1021.66 1021.78 1021.94 1022.10 1022.30 1022.46 1022.62 1022.74 1022.94 1023.10 1023.18 1023.30 1023.42 1023.46 1023.58 1023.66 1023.74 1023.82 1023.86 1023.94 1023.94 1023.94 1023.98 1024.02 1024.06 1024.10 1024.14 1024.18 1024.26
1014.54 1014.74 1014.90 1015.14 1015.34 1015.58 1015.74 1015.90 1016.02 1016.18 1016.26 1016.42 1016.54 1016.74 1016.94 1017.18 1017.46 1017.74 1018.02 1018.26 1018.46 1018.62 1018.78 1019.02 1019.18 1019.26 1019.34 1019.46 1019.70 1019.90 1020.14 1020.26 1020.30 1020.42 1020.54 1020.62 1020.74 1020.90 1021.10 1021.30 1021.46 1021.62 1021.82 1021.98 1022.14 1022.30 1022.42 1022.54 1022.70 1022.86 1023.02 1023.14 1023.26 1023.34 1023.46 1023.50 1023.58 1023.66 1023.70 1023.74 1023.78 1023.78 1023.82 1023.86 1023.94 1023.94 1023.98 1024.02 1024.06
1014.54 1014.74 1014.90 1015.10 1015.30 1015.50 1015.70 1015.86 1015.98 1016.06 1016.18 1016.30 1016.42 1016.58 1016.78 1017.02 1017.26 1017.58 1017.86 1018.06 1018.30 1018.46 1018.58 1018.74 1018.86 1018.94 1019.02 1019.18 1019.38 1019.62 1019.86 1020.02 1020.18 1020.22 1020.30 1020.46 1020.58 1020.74 1020.90 1021.10 1021.30 1021.50 1021.70 1021.86 1021.98 1022.10 1022.18 1022.30 1022.46 1022.66 1022.82 1022.98 1023.10 1023.22 1023.30 1023.42 1023.46 1023.54 1023.58 1023.58 1023.62 1023.62 1023.62 1023.70 1023.74 1023.78 1023.82 1023.86 1023.90
1014.54 1014.74 1014.90 1015.10 1015.30 1015.50 1015.66 1015.82 1015.94 1016.02 1016.14 1016.26 1016.38 1016.50 1016.66 1016.86 1017.14 1017.38 1017.62 1017.86 1018.10 1018.30 1018.42 1018.50 1018.58 1018.62 1018.74 1018.90 1019.14 1019.38 1019.62 1019.86 1019.94 1020.02 1020.18 1020.30 1020.42 1020.58 1020.78 1021.02 1021.18 1021.38 1021.58 1021.74 1021.86 1021.94 1022.02 1022.10 1022.30 1022.46 1022.66 1022.86 1022.98 1023.10 1023.22 1023.30 1023.38 1023.42 1023.46 1023.46 1023.46 1023.46 1023.46 1023.50 1023.58 1023.62 1023.70 1023.74 1023.78
1014.54 1014.74 1014.98 1015.18 1015.38 1015.58 1015.70 1015.82 1015.94 1016.02 1016.10 1016.18 1016.34 1016.46 1016.62 1016.82 1017.06 1017.30 1017.58 1017.78 1018.02 1018.22 1018.30 1018.34 1018.38 1018.42 1018.50 1018.70 1018.90 1019.22 1019.50 1019.70 1019.82 1019.86 1020.02 1020.18 1020.30 1020.50 1020.74 1020.90 1021.06 1021.26 1021.42 1021.58 1021.66 1021.74 1021.86 1022.02 1022.18 1022.38 1022.54 1022.74 1022.86 1022.98 1023.10 1023.18 1023.22 1023.26 1023.30 1023.30 1023.26 1023.26 1023.30 1023.34 1023.42 1023.50 1023.58 1023.66 1023.70
1014.70 1014.90 1015.18 1015.34 1015.50 1015.62 1015.74 1015.82 1015.90 1015.98 1016.06 1016.18 1016.30 1016.50 1016.70 1016.90 1017.10 1017.38 1017.66 1017.86 1018.06 1018.18 1018.26 1018.26 1018.30 1018.30 1018.38 1018.54 1018.82 1019.14 1019.42 1019.62 1019.74 1019.82 1019.90 1020.02 1020.22 1020.42 1020.62 1020.86 1021.02 1021.18 1021.30 1021.34 1021.46 1021.58 1021.74 1021.94 1022.14 1022.30 1022.46 1022.58 1022.74 1022.78 1022.90 1023.02 1023.10 1023.10 1023.10 1023.06 1023.02 1023.06 1023.14 1023.18 1023.30 1023.38 1023.46 1023.58 1023.58
1014.78 1015.02 1015.22 1015.34 1015.54 1015.62 1015.74 1015.82 1015.86 1015.94 1016.02 1016.18 1016.34 1016.58 1016.74 1016.94 1017.14 1017.42 1017.66 1017.86 1017.98 1018.06 1018.10 1018.14 1018.18 1018.30 1018.38 1018.54 1018.78 1019.10 1019.30 1019.46 1019.62 1019.74 1019.86 1019.98 1020.18 1020.34 1020.54 1020.74 1020.90 1021.06 1021.18 1021.26 1021.38 1021.50 1021.70 1021.86 1022.06 1022.22 1022.34 1022.46 1022.54 1022.62 1022.74 1022.90 1022.98 1022.98 1022.94 1022.90 1022.90 1022.90 1022.98 1023.06 1023.18 1023.30 1023.34 1023.42 1023.46
1014.66 1014.86 1015.02 1015.18 1015.30 1015.50 1015.62 1015.74 1015.82 1015.86 1015.98 1016.10 1016.30 1016.54 1016.74 1016.90 1017.06 1017.30 1017.50 1017.66 1017.78 1017.86 1017.94 1017.94 1018.02 1018.30 1018.54 1018.74 1018.90 1019.06 1019.22 1019.30 1019.50 1019.62 1019.74 1019.90 1020.10 1020.30 1020.50 1020.66 1020.82 1020.98 1021.10 1021.26 1021.46 1021.58 1021.74 1021.86 1021.98 1022.06 1022.18 1022.30 1022.38 1022.50 1022.62 1022.74 1022.78 1022.82 1022.82 1022.78 1022.82 1022.86 1022.94 1023.02 1023.10 1023.18 1023.22 1023.22 1023.30
1014.46 1014.62 1014.78 1014.90 1015.02 1015.22 1015.34 1015.46 1015.58 1015.70 1015.86 1016.02 1016.22 1016.42 1016.62 1016.78 1016.98 1017.18 1017.34 1017.54 1017.66 1017.78 1017.86 1017.90 1018.06 1018.34 1018.62 1018.82 1018.90 1019.06 1019.18 1019.30 1019.42 1019.54 1019.74 1019.90 1020.10 1020.30 1020.46 1020.62 1020.74 1020.90 1021.06 1021.26 1021.54 1021.74 1021.82 1021.90 1022.02 1022.02 1022.06 1022.14 1022.26 1022.38 1022.50 1022.62 1022.70 1022.70 1022.70 1022.70 1022.74 1022.82 1022.90 1022.90 1022.98 1023.02 1023.10 1023.14 1023.10
1014.30 1014.46 1014.54 1014.62 1014.78 1014.90 1015.06 1015.18 1015.34 1015.54 1015.70 1015.86 1016.02 1016.22 1016.42 1016.58 1016.86 1017.06 1017.26 1017.46 1017.62 1017.78 1017.90 1017.98 1018.14 1018.42 1018.70 1018.86 1018.94 1019.06 1019.18 1019.26 1019.38 1019.54 1019.74 1019.90 1020.10 1020.30 1020.46 1020.58 1020.74 1020.90 1021.10 1021.34 1021.58 1021.78 1021.94 1022.02 1022.02 1022.06 1022.06 1022.10 1022.18 1022.30 1022.46 1022.46 1022.54 1022.58 1022.58 1022.62 1022.70 1022.74 1022.78 1022.82 1022.82 1022.86 1022.90 1022.94 1022.98
1014.10 1014.26 1014.34 1014.50 1014.58 1014.70 1014.86 1015.02 1015.22 1015.38 1015.54 1015.74 1015.86 1016.06 1016.26 1016.46 1016.74 1016.98 1017.22 1017.46 1017.70 1017.86 1017.98 1018.06 1018.22 1018.50 1018.78 1018.94 1019.02 1019.06 1019.18 1019.30 1019.46 1019.58 1019.74 1019.94 1020.10 1020.26 1020.42 1020.58 1020.66 1020.86 1021.10 1021.34 1021.58 1021.74 1021.94 1022.06 1022.10 1022.10 1022.14 1022.18 1022.18 1022.30 1022.34 1022.42 1022.46 1022.46 1022.50 1022.58 1022.58 1022.62 1022.66 1022.70 1022.70 1022.66 1022.66 1022.70 1022.74
1013.98 1014.14 1014.26 1014.38 1014.46 1014.58 1014.74 1014.90 1015.06 1015.22 1015.42 1015.58 1015.74 1015.98 1016.18 1016.46 1016.70 1016.94 1017.18 1017.46 1017.70 1017.86 1018.02 1018.18 1018.34 1018.58 1018.78 1018.90 1019.02 1019.10 1019.22 1019.34 1019.50 1019.66 1019.82 1019.94 1020.06 1020.22 1020.34 1020.46 1020.58 1020.82 1021.06 1021.30 1021.46 1021.70 1021.86 1022.02 1022.02 1022.10 1022.14 1022.18 1022.18 1022.22 1022.30 1022.34 1022.34 1022.38 1022.42 1022.46 1022.46 1022.50 1022.50 1022.50 1022.54 1022.50 1022.50 1022.50 1022.50
1013.86 1014.02 1014.18 1014.30 1014.34 1014.46 1014.62 1014.82 1014.98 1015.18 1015.30 1015.50 1015.66 1015.90 1016.18 1016.46 1016.70 1016.94 1017.18 1017.46 1017.62 1017.82 1018.02 1018.18 1018.34 1018.54 1018.70 1018.82 1018.90 1019.02 1019.18 1019.34 1019.54 1019.66 1019.78 1019.90 1020.02 1020.14 1020.22 1020.38 1020.54 1020.74 1020.98 1021.22 1021.42 1021.62 1021.78 1021.90 1021.94 1021.98 1022.02 1022.14 1022.14 1022.18 1022.26 1022.22 1022.18 1022.18 1022.22 1022.30 1022.26 1022.30 1022.34 1022.34 1022.30 1022.30 1022.30 1022.30 1022.22
1013.74 1013.90 1014.02 1014.14 1014.26 1014.38 1014.54 1014.74 1014.90 1015.10 1015.30 1015.50 1015.74 1015.98 1016.18 1016.46 1016.62 1016.86 1017.10 1017.34 1017.54 1017.70 1017.86 1018.06 1018.22 1018.34 1018.50 1018.58 1018.74 1018.86 1019.02 1019.26 1019.46 1019.66 1019.78 1019.86 1019.98 1020.02 1020.14 1020.30 1020.46 1020.62 1020.86 1021.14 1021.30 1021.46 1021.58 1021.70 1021.78 1021.82 1021.90 1022.02 1022.10 1022.14 1022.14 1022.02 1022.02 1022.02 1022.02 1022.06 1022.10 1022.14 1022.18 1022.18 1022.18 1022.18 1022.14 1022.10 1021.98
1013.66 1013.78 1013.86 1014.02 1014.18 1014.30 1014.54 1014.74 1014.94 1015.14 1015.34 1015.58 1015.78 1016.02 1016.22 1016.42 1016.58 1016.78 1017.02 1017.22 1017.42 1017.58 1017.74 1017.90 1018.06 1018.18 1018.34 1018.46 1018.54 1018.66 1018.90 1019.14 1019.34 1019.54 1019.66 1019.74 1019.86 1019.98 1020.10 1020.26 1020.34 1020.46 1020.74 1021.02 1021.18 1021.30 1021.42 1021.54 1021.58 1021.62 1021.74 1021.86 1022.02 1022.02 1021.98 1021.90 1021.86 1021.86 1021.86 1021.86 1021.90 1021.94 1021.98 1022.02 1021.98 1021.98 1021.90 1021.86 1021.66
1013.58 1013.70 1013.78 1013.90 1014.10 1014.34 1014.58 1014.82 1015.02 1015.26 1015.46 1015.66 1015.86 1016.02 1016.22 1016.38 1016.54 1016.70 1016.86 1017.06 1017.30 1017.50 1017.66 1017.86 1017.98 1018.14 1018.22 1018.30 1018.38 1018.50 1018.74 1019.02 1019.22 1019.42 1019.58 1019.70 1019.82 1019.94 1020.10 1020.22 1020.26 1020.38 1020.62 1020.98 1021.06 1021.18 1021.30 1021.38 1021.46 1021.46 1021.58 1021.78 1021.90 1021.90 1021.86 1021.78 1021.74 1021.74 1021.78 1021.74 1021.78 1021.78 1021.82 1021.78 1021.78 1021.74 1021.62 1021.46 1021.34
1013.58 1013.70 1013.78 1013.94 1014.18 1014.42 1014.70 1014.98 1015.18 1015.42 1015.58 1015.74 1015.86 1016.02 1016.18 1016.30 1016.42 1016.58 1016.74 1017.02 1017.30 1017.54 1017.74 1017.86 1018.02 1018.18 1018.22 1018.30 1018.38 1018.54 1018.78 1019.02 1019.18 1019.38 1019.54 1019.70 1019.82 1019.94 1020.02 1020.14 1020.14 1020.34 1020.66 1020.90 1020.98 1021.06 1021.18 1021.26 1021.30 1021.38 1021.50 1021.74 1021.86 1021.82 1021.74 1021.70 1021.62 1021.62 1021.62 1021.58 1021.62 1021.62 1021.62 1021.58 1021.54 1021.42 1021.30 1021.18 1021.10
1013.58 1013.74 1013.86 1014.06 1014.30 1014.58 1014.82 1015.06 1015.30 1015.46 1015.62 1015.74 1015.86 1015.98 1016.06 1016.18 1016.30 1016.54 1016.74 1017.02 1017.30 1017.54 1017.74 1017.86 1018.02 1018.18 1018.30 1018.34 1018.46 1018.66 1018.90 1019.10 1019.26 1019.42 1019.54 1019.66 1019.74 1019.86 1020.02 1020.10 1020.06 1020.34 1020.70 1020.82 1020.86 1020.94 1021.02 1021.14 1021.18 1021.30 1021.46 1021.70 1021.78 1021.74 1021.62 1021.58 1021.54 1021.50 1021.50 1021.50 1021.46 1021.42 1021.38 1021.30 1021.18 1021.10 1020.98 1020.90 1020.86
1013.66 1013.86 1014.02 1014.22 1014.46 1014.70 1014.90 1015.10 1015.30 1015.46 1015.58 1015.70 1015.82 1015.90 1016.02 1016.18 1016.34 1016.54 1016.74 1017.02 1017.30 1017.46 1017.70 1017.86 1018.06 1018.18 1018.30 1018.46 1018.62 1018.82 1019.02 1019.18 1019.30 1019.46 1019.54 1019.58 1019.66 1019.78 1019.90 1020.02 1020.02 1020.30 1020.58 1020.66 1020.74 1020.86 1020.90 1021.02 1021.10 1021.26 1021.46 1021.66 1021.66 1021.58 1021.54 1021.50 1021.46 1021.46 1021.38 1021.34 1021.26 1021.14 1021.02 1020.94 1020.86 1020.74 1020.74 1020.70 1020.66
1013.74 1014.02 1014.22 1014.38 1014.58 1014.74 1014.98 1015.14 1015.30 1015.42 1015.54 1015.70 1015.82 1015.98 1016.10 1016.22 1016.38 1016.58 1016.78 1017.02 1017.26 1017.46 1017.66 1017.90 1018.10 1018.26 1018.38 1018.50 1018.74 1018.90 1019.02 1019.18 1019.30 1019.38 1019.46 1019.50 1019.58 1019.70 1019.82 1019.90 1019.90 1020.10 1020.38 1020.58 1020.66 1020.74 1020.86 1020.98 1021.10 1021.30 1021.46 1021.54 1021.50 1021.46 1021.46 1021.46 1021.42 1021.30 1021.22 1021.06 1020.90 1020.78 1020.66 1020.58 1020.50 1020.46 1020.46 1020.46 1020.46
1013.90 1014.14 1014.38 1014.54 1014.66 1014.78 1014.94 1015.18 1015.34 1015.46 1015.58 1015.74 1015.86 1016.02 1016.18 1016.26 1016.42 1016.62 1016.86 1017.10 1017.26 1017.42 1017.58 1017.82 1018.02 1018.18 1018.38 1018.58 1018.74 1018.90 1018.98 1019.02 1019.14 1019.22 1019.30 1019.38 1019.46 1019.58 1019.66 1019.74 1019.70 1019.82 1020.10 1020.46 1020.62 1020.74 1020.90 1021.02 1021.18 1021.30 1021.38 1021.38 1021.34 1021.38 1021.42 1021.38 1021.30 1021.10 1020.90 1020.70 1020.50 1020.38 1020.30 1020.30 1020.26 1020.18 1020.18 1020.22 1020.30
1014.02 1014.22 1014.42 1014.54 1014.66 1014.78 1014.94 1015.18 1015.38 1015.58 1015.70 1015.78 1015.90 1016.06 1016.18 1016.30 1016.50 1016.74 1016.98 1017.18 1017.30 1017.42 1017.58 1017.82 1018.02 1018.18 1018.38 1018.58 1018.70 1018.78 1018.90 1018.90 1019.02 1019.14 1019.26 1019.30 1019.42 1019.50 1019.54 1019.58 1019.54 1019.62 1019.86 1020.30 1020.58 1020.74 1020.90 1021.02 1021.18 1021.26 1021.30 1021.30 1021.30 1021.30 1021.30 1021.18 1021.02 1020.78 1020.54 1020.34 1020.18 1020.10 1020.06 1020.02 1020.02 1019.94 1019.90 1019.94 1020.06
1014.10 1014.30 1014.46 1014.54 1014.70 1014.86 1014.98 1015.18 1015.38 1015.58 1015.74 1015.86 1016.02 1016.10 1016.26 1016.46 1016.66 1016.90 1017.14 1017.30 1017.46 1017.58 1017.78 1017.94 1018.06 1018.18 1018.38 1018.58 1018.58 1018.66 1018.78 1018.86 1018.94 1019.06 1019.18 1019.30 1019.34 1019.46 1019.54 1019.58 1019.58 1019.58 1019.82 1020.26 1020.58 1020.74 1020.90 1021.02 1021.10 1021.18 1021.26 1021.22 1021.22 1021.18 1021.10 1020.90 1020.74 1020.50 1020.26 1020.06 1019.98 1019.90 1019.86 1019.78 1019.74 1019.74 1019.66 1019.62 1019.78
1014.18 1014.38 1014.54 1014.66 1014.82 1014.98 1015.10 1015.22 1015.46 1015.66 1015.86 1015.98 1016.10 1016.26 1016.46 1016.74 1016.94 1017.18 1017.30 1017.46 1017.58 1017.70 1017.82 1017.86 1018.02 1018.18 1018.38 1018.54 1018.62 1018.70 1018.78 1018.86 1019.02 1019.14 1019.18 1019.30 1019.34 1019.50 1019.66 1019.70 1019.74 1019.74 1019.94 1020.30 1020.58 1020.78 1020.86 1020.94 1021.02 1021.10 1021.18 1021.14 1021.06 1020.94 1020.74 1020.58 1020.42 1020.18 1019.98 1019.82 1019.74 1019.70 1019.62 1019.54 1019.46 1019.46 1019.42 1019.42 1019.46
Wind_Speed
12 11 10 10 9 9 9 9 9 8 8 9 9 9 9 9 9 8 8 9 9 9 9 9 9 9 11 14 15 15 14 13 14 13 13 13 12 12 12 11 11 11 11 10 10 9 8 8 7 5 4 4 5 5 5 4 5 5 6 5 5 5 5 6 6 6 6 6 5
12 12 11 10 10 9 9 9 8 8 8 8 8 9 9 8 9 9 9 10 9 9 9 8 10 11 12 15 15 15 14 14 14 14 13 13 13 13 12 11 11 11 11 11 10 9 8 8 7 6 5 5 5 5 5 5 5 6 6 7 5 5 5 5 5 6 6 6 5
12 12 12 12 12 11 10 9 8 9 9 9 9 9 9 8 8 8 9 9 10 10 9 8 10 12 14 15 15 14 14 14 15 14 13 13 13 13 13 12 12 12 11 11 10 9 8 8 7 6 5 5 6 6 6 6 6 6 6 7 5 5 4 4 5 5 5 4 5
12 12 13 14 16 15 13 10 9 10 10 10 10 10 9 8 8 8 9 10 11 10 10 10 10 11 13 14 15 15 14 14 15 14 13 13 13 13 13 12 13 12 12 11 11 10 9 9 7 5 5 6 7 6 6 5 6 6 6 6 5 5 4 4 4 4 4 4 4
13 13 14 15 17 17 14 11 11 11 11 10 10 9 9 8 8 8 9 10 10 10 11 11 10 11 12 14 15 16 15 15 14 13 13 13 13 13 13 13 13 12 12 11 11 10 10 10 7 5 6 6 6 6 6 6 7 6 5 5 5 4 4 4 4 4 4 4 4
15 15 16 15 17 16 14 12 13 12 11 10 11 11 10 9 9 9 10 10 11 11 12 12 11 11 12 14 15 15 15 14 13 13 13 13 13 13 13 14 13 12 12 11 12 11 10 9 6 5 5 6 6 6 6 7 6 6 6 5 5 5 5 5 4 4 4 5 5
17 17 17 17 17 15 14 13 13 13 13 12 13 14 13 12 12 12 13 11 11 11 12 11 11 12 12 14 15 14 14 13 13 13 13 12 12 13 13 13 13 13 12 12 12 11 10 9 7 5 5 5 5 6 7 7 6 6 6 6 5 5 5 6 5 4 5 6 7
17 17 17 17 17 16 16 16 15 14 13 12 14 16 16 15 15 14 14 12 11 11 11 10 12 13 14 14 14 14 14 14 13 13 13 12 13 14 14 13 13 13 13 12 12 11 11 9 7 6 6 6 5 6 7 8 8 8 7 7 6 5 5 5 5 5 6 7 7
16 17 17 17 17 17 17 17 17 16 15 14 15 16 17 16 15 14 13 11 11 11 11 11 13 14 15 15 15 14 14 13 13 13 13 12 13 14 14 13 13 13 13 12 12 12 11 9 7 6 6 6 6 6 7 9 9 9 8 8 7 6 6 6 7 7 7 7 8
16 17 17 16 17 17 17 18 17 17 17 16 16 16 16 14 14 13 12 10 10 11 11 11 13 14 15 15 15 14 13 12 13 13 13 13 14 14 14 13 13 13 13 12 12 12 11 9 8 7 7 7 7 8 8 9 10 10 9 7 7 8 8 8 8 8 8 8 8
17 17 17 16 17 17 17 18 17 17 16 16 16 15 14 13 13 12 11 10 11 12 13 12 13 14 14 14 14 13 13 12 12 13 14 14 14 15 14 14 14 14 13 12 11 10 10 8 9 9 9 8 8 8 9 10 11 11 10 8 8 9 9 9 9 9 8 8 9
18 17 17 16 17 17 17 17 15 15 15 15 15 14 13 12 13 13 13 13 13 13 13 12 13 13 13 12 13 13 12 13 13 14 14 15 15 15 15 14 14 14 14 13 11 10 9 9 9 10 10 10 8 8 9 10 11 11 11 11 10 10 10 10 10 9 8 8 8
17 16 16 16 16 16 16 16 14 14 14 14 14 13 12 12 14 14 15 15 14 13 12 12 12 13 13 12 12 12 12 13 14 14 14 15 15 15 15 15 15 15 14 13 11 10 9 10 11 11 11 11 9 8 9 10 11 11 12 12 11 11 10 10 10 9 9 8 8
17 16 16 15 16 15 15 15 13 13 13 14 14 13 13 13 14 15 15 15 14 13 11 11 11 11 12 12 13 13 14 14 15 15 15 15 15 15 15 15 15 15 14 12 12 12 11 11 11 11 11 11 10 10 10 10 11 11 12 12 12 12 11 10 10 10 9 9 9
16 16 15 15 15 14 14 14 12 12 13 14 14 13 13 13 13 14 14 14 14 13 11 11 10 11 12 13 14 14 15 15 15 16 16 16 15 16 15 15 16 15 14 13 12 12 12 12 12 12 11 11 11 11 11 11 11 11 12 12 12 11 11 11 10 10 9 9 9
15 15 15 15 15 14 13 13 11 11 12 13 14 14 13 12 12 13 13 14 13 12 11 11 11 11 12 13 14 15 15 15 16 16 16 16 16 16 16 15 15 15 14 13 12 12 12 12 11 11 11 11 11 11 11 12 12 12 12 12 12 11 11 11 11 10 10 10 10
15 15 15 14 14 14 14 13 11 11 12 13 14 14 13 12 11 11 12 13 12 12 12 12 11 11 12 13 14 14 14 15 15 15 16 15 16 16 16 15 15 15 14 14 13 13 12 12 11 11 11 11 11 11 11 12 12 12 12 12 12 12 11 11 10 10 10 10 11
14 14 14 14 14 14 14 14 13 12 13 14 14 13 12 11 11 11 11 12 12 12 13 13 13 13 13 14 14 13 13 14 15 15 15 15 16 16 16 15 15 14 14 13 13 13 13 13 13 12 11 11 10 11 11 11 11 12 12 12 12 12 11 11 11 10 10 11 11
13 13 13 13 14 14 14 14 14 13 13 13 13 13 12 12 12 11 11 12 12 13 14 14 14 14 15 15 15 14 13 14 15 15 15 15 15 15 15 15 15 14 14 13 13 13 14 14 13 12 11 11 10 10 11 11 11 11 12 12 12 12 12 12 11 11 11 11 11
12 12 12 13 13 13 14 14 14 13 13 12 12 12 13 13 12 12 12 13 13 14 14 15 15 15 15 16 16 15 14 13 15 15 16 15 15 15 15 15 14 14 13 13 13 13 14 14 13 12 12 11 10 10 11 11 11 12 12 11 12 12 12 12 12 12 11 11 10
12 12 12 12 12 12 12 13 13 13 12 12 12 12 13 13 13 13 14 14 14 14 15 16 16 16 16 16 17 16 15 12 14 14 15 14 14 14 14 13 13 13 13 13 13 13 13 13 13 12 11 10 10 10 10 11 11 12 12 11 11 12 12 12 12 11 11 11 10
11 11 10 10 10 11 11 12 12 12 12 12 12 12 12 12 12 12 13 13 14 14 15 15 15 16 16 16 16 16 14 12 13 13 13 13 13 13 13 12 13 13 13 13 13 13 13 12 11 11 10 10 10 10 11 11 11 12 12 12 12 12 12 12 11 11 11 10 10
9 9 9 9 9 10 11 11 12 12 12 12 11 11 11 11 11 11 11 11 12 13 14 13 14 14 15 15 15 15 14 13 12 13 13 12 12 12 12 11 12 12 13 12 12 12 12 10 10 10 10 9 10 10 11 11 11 11 12 13 13 12 12 11 11 10 10 10 10
10 9 9 9 10 10 11 11 11 11 12 11 10 10 10 10 11 11 11 12 12 13 13 12 12 12 13 14 14 15 14 14 13 13 13 13 12 12 12 11 11 12 11 9 9 9 9 8 8 9 9 9 9 10 10 10 11 11 12 12 12 11 11 11 10 10 10 10 10
12 12 11 11 12 12 12 12 12 12 12 12 11 10 11 11 11 11 11 12 12 13 13 12 11 11 11 12 13 13 13 14 14 13 13 13 12 12 11 10 10 9 8 6 6 7 7 7 7 8 8 8 8 8 8 9 11 11 11 11 11 10 10 10 10 10 10 11 10
13 13 14 14 14 14 14 14 14 14 13 12 11 11 11 11 11 11 11 11 11 11 11 11 10 9 9 10 11 12 12 12 12 12 13 12 12 12 11 10 8 6 5 4 5 7 7 7 7 7 7 7 7 7 7 8 10 10 10 10 10 9 9 9 10 10 10 10 11
13 13 14 14 14 14 15 14 14 14 13 12 12 12 11 11 9 9 10 9 9 9 9 9 9 8 8 9 10 11 11 10 10 11 12 12 12 12 11 10 8 5 4 5 7 8 8 8 8 6 6 6 6 6 7 8 9 9 9 9 9 9 9 10 10 10 10 10 11
12 12 12 13 13 13 13 13 13 12 12 12 12 11 10 10 9 9 9 8 8 8 8 7 7 6 6 6 9 10 10 10 9 9 10 11 11 12 11 10 8 6 5 7 8 9 10 10 9 8 6 5 5 6 7 7 8 8 8 8 9 9 10 10 10 10 10 11 11
11 11 11 12 12 12 12 11 11 11 11 11 11 10 9 9 9 8 8 8 8 8 7 6 6 5 5 6 7 8 9 9 8 8 9 10 11 12 11 11 9 7 7 9 10 10 11 11 11 10 9 7 5 5 6 7 7 7 7 7 8 9 9 9 9 9 10 11 12
10 10 11 11 11 11 10 10 10 10 10 9 9 9 9 9 9 9 9 9 9 9 8 7 6 6 7 8 8 8 8 8 8 9 9 11 12 12 11 10 9 8 8 10 11 12 12 13 12 12 11 9 7 6 6 7 7 7 7 7 8 9 9 10 10 11 11 12 13
10 10 10 10 10 10 9 9 9 8 8 8 8 9 9 9 9 9 9 9 9 9 9 9 9 9 9 9 9 9 9 8 9 9 10 12 12 11 11 10 9 8 8 11 12 13 13 13 13 13 12 11 9 7 7 7 7 7 7 7 8 9 10 10 11 12 13 14 14
9 9 9 9 9 8 8 7 7 7 8 8 8 9 9 9 9 10 10 10 10 10 10 11 11 11 11 11 10 10 10 10 10 10 11 11 11 10 10 9 9 9 9 12 13 14 14 14 13 13 13 13 10 8 8 8 8 8 8 9 10 11 11 10 11 12 15 16 16
8 8 8 8 7 7 6 6 6 7 7 8 8 8 9 9 10 10 10 10 9 9 10 10 11 11 11 11 10 10 10 10 11 11 11 10 9 9 9 8 9 7 8 12 13 13 13 13 13 13 13 13 10 9 9 8 8 8 8 9 10 11 12 13 13 14 16 17 16
8 7 7 6 6 5 5 6 6 7 7 7 8 9 9 10 10 10 9 8 7 7 8 8 9 9 9 9 8 9 9 10 10 10 9 9 8 8 9 9 7 6 7 12 12 12 12 12 12 13 13 13 9 8 8 9 8 8 9 10 11 12 13 14 15 16 17 17 15
6 6 5 5 5 5 6 6 7 7 7 8 8 9 9 10 9 8 7 7 6 6 6 6 7 7 6 6 7 7 8 8 8 8 8 8 8 9 9 11 8 7 9 12 12 12 12 12 12 12 12 11 8 7 8 9 9 10 11 12 13 14 14 15 16 16 16 16 16
5 5 5 5 5 6 6 6 7 7 8 8 8 8 8 8 7 6 6 6 6 6 6 5 5 5 5 5 5 6 7 7 7 7 7 8 8 9 10 11 9 8 9 11 11 12 12 12 11 11 11 9 7 7 7 7 8 10 12 13 14 15 16 16 16 15 15 14 15
5 5 5 5 5 6 6 6 6 6 7 7 7 7 6 6 5 5 4 5 5 6 5 5 5 5 5 5 5 6 7 7 8 8 8 8 9 10 11 11 10 8 8 10 10 10 10 10 10 10 10 8 7 6 6 7 8 10 12 14 14 15 15 14 14 14 14 14 14
5 5 5 5 5 5 5 5 5 5 5 5 5 5 4 4 4 4 4 5 5 6 6 6 6 6 6 6 6 7 8 8 8 8 8 9 9 10 10 11 10 8 7 9 9 9 9 9 10 10 9 7 7 6 6 7 9 10 11 12 12 13 13 12 11 11 13 14 14
5 5 5 5 5 4 4 5 4 4 4 4 3 3 3 4 4 4 4 4 5 5 5 5 6 6 6 7 7 7 8 8 8 8 9 9 9 9 9 10 9 8 6 7 8 8 9 9 10 10 10 7 6 6 6 8 10 11 12 11 11 11 11 11 10 10 11 13 13
5 5 4 4 4 3 3 4 4 4 3 3 3 3 4 4 4 4 4 4 4 4 5 5 6 6 6 6 6 7 7 7 8 8 8 9 8 7 6 7 8 7 5 5 7 8 8 9 10 10 10 7 7 7 8 8 10 11 12 11 10 10 10 10 10 9 10 12 12
5 4 4 4 4 4 4 4 4 4 4 4 4 4 4 4 4 5 5 4 5 5 5 5 6 6 6 6 5 6 6 7 7 7 7 7 6 4 4 5 6 6 4 3 6 8 9 10 10 11 11 8 8 8 9 9 10 12 12 12 10 9 9 9 9 9 10 11 11
Wind_Direction
197 197 197 198 200 201 202 202 199 196 193 190 191 189 187 186 182 180 180 182 184 187 188 190 189 190 189 187 187 187 188 187 185 185 185 184 180 179 179 180 179 179 182 185 184 187 193 198 198 197 197 202 204 202 199 199 206 211 215 218 222 224 225 226 228 230 232 234 238
198 200 199 199 200 202 203 203 197 193 191 191 192 191 189 185 182 182 184 187 187 187 187 189 190 190 189 187 186 187 188 187 186 185 186 186 182 180 179 179 180 180 183 185 185 187 192 198 200 200 199 200 205 203 200 199 206 213 218 219 221 223 224 227 229 231 233 234 236
199 204 205 202 201 202 203 203 194 188 187 191 194 192 190 188 187 186 188 190 189 188 188 189 190 190 189 186 186 187 188 188 186 185 185 186 183 180 180 179 180 181 183 185 187 189 193 197 201 203 203 202 205 204 201 199 205 213 219 220 220 220 221 225 229 231 232 234 236
199 207 210 206 203 203 203 201 190 186 188 193 196 195 192 191 192 192 191 191 191 191 191 191 190 189 188 186 186 187 188 188 187 186 185 185 183 181 180 180 181 183 184 186 188 191 195 197 201 205 208 208 209 208 204 198 202 209 217 220 220 218 218 222 226 229 232 236 238
200 207 210 208 205 203 202 199 191 189 191 195 198 197 193 192 194 194 194 194 194 194 193 191 189 188 187 186 186 186 187 188 187 186 185 185 183 182 181 182 183 183 184 186 190 193 196 198 201 206 210 211 211 211 207 200 202 207 212 217 218 218 219 222 224 226 229 234 237
201 207 210 208 204 203 202 199 195 194 195 198 200 198 195 191 194 196 196 197 197 195 193 192 191 189 187 186 186 186 187 188 188 187 186 184 182 182 183 184 185 184 185 187 190 193 196 200 203 208 212 215 214 213 210 204 205 207 210 213 213 215 219 222 223 224 227 232 238
203 205 206 204 201 200 200 199 197 196 197 200 201 200 198 194 195 196 198 198 197 194 192 192 192 190 187 185 186 186 186 187 188 187 186 184 182 183 184 185 186 186 186 187 190 192 195 200 204 209 212 216 216 213 210 208 209 211 213 214 211 213 218 223 224 226 229 234 240
205 204 202 200 198 198 199 199 197 196 196 200 202 202 200 197 196 196 196 197 196 193 192 192 193 192 189 185 185 186 186 186 186 187 186 184 184 184 185 186 187 188 188 189 191 192 193 197 204 208 210 212 215 212 209 208 212 216 219 219 213 210 212 219 222 226 230 233 237
205 203 201 199 198 197 198 199 198 197 197 200 202 202 201 199 197 196 196 197 197 194 193 193 194 193 190 187 185 185 185 185 185 186 186 185 185 185 185 186 188 189 190 190 192 193 194 196 203 208 210 210 213 210 208 207 213 217 222 225 220 213 210 213 218 223 228 231 232
204 202 200 198 198 197 197 199 199 199 200 201 202 202 201 199 199 198 199 200 198 197 195 195 194 192 190 188 186 186 185 185 185 186 187 187 187 186 186 186 189 190 190 191 193 194 195 197 204 209 212 213 214 212 209 208 212 217 221 227 224 219 215 214 218 223 227 230 231
204 201 199 198 197 197 198 199 201 202 202 202 202 201 200 201 203 204 206 206 204 201 199 196 194 192 191 189 188 187 186 186 187 188 188 188 188 188 187 187 190 191 192 191 192 194 196 199 205 210 212 215 216 215 212 210 214 218 221 227 226 224 221 220 221 224 228 230 231
205 202 200 198 197 197 198 199 202 203 203 203 201 199 200 203 206 209 210 210 207 205 201 198 195 193 192 190 188 188 188 188 189 190 191 190 190 189 189 189 191 192 193 191 191 193 197 201 206 210 213 215 216 216 216 214 217 220 224 227 227 227 225 225 225 227 230 233 233
206 204 202 199 197 197 198 200 202 203 203 202 201 201 203 206 208 209 210 209 207 205 202 198 196 195 194 191 189 189 190 192 193 193 193 191 191 190 190 191 192 194 194 192 191 193 197 202 208 213 216 216 216 216 218 219 221 224 226 227 227 228 228 228 228 230 233 237 238
209 207 204 200 198 197 198 199 201 202 202 201 202 204 206 207 207 207 208 207 206 203 201 197 195 195 195 193 192 192 193 195 195 195 194 193 192 192 192 193 194 195 194 191 191 193 197 202 209 215 219 220 218 217 218 221 226 228 230 230 229 229 230 231 231 232 233 236 239
211 209 206 202 199 197 198 199 200 201 201 201 203 204 205 205 203 203 204 204 203 201 199 194 193 193 195 195 195 196 196 197 197 196 195 194 193 194 194 196 196 196 195 191 190 193 198 204 210 216 221 223 221 219 219 221 226 230 233 234 233 232 231 231 232 231 231 232 236
212 210 207 203 200 198 198 198 200 201 202 202 203 204 204 202 199 198 199 200 200 199 196 191 190 191 194 197 199 199 198 198 198 197 196 195 194 195 197 198 198 198 196 191 188 191 198 206 212 217 221 223 223 223 222 223 226 229 233 236 236 235 234 233 232 231 230 229 233
213 211 208 205 201 199 199 199 201 202 202 204 203 203 202 200 196 194 194 196 197 196 193 189 189 191 194 197 200 200 200 200 199 198 197 196 196 197 198 200 200 200 198 193 189 191 196 203 210 216 219 221 223 226 228 227 227 228 231 234 235 235 235 234 233 232 230 230 233
213 212 209 206 203 201 201 202 204 205 205 205 204 202 201 198 193 191 191 193 194 193 191 189 191 194 196 197 198 200 201 202 200 199 198 198 198 198 199 201 201 200 199 195 192 193 197 203 207 211 214 217 221 226 230 231 230 229 230 232 233 234 234 233 232 231 231 231 233
211 210 209 206 204 204 204 206 208 209 208 207 206 203 199 197 191 186 185 188 190 191 191 191 194 197 198 198 198 199 201 202 201 200 199 200 200 200 200 200 201 200 199 197 196 197 200 204 205 207 209 212 217 223 228 232 232 232 231 232 232 232 232 231 231 232 232 233 235
209 208 207 206 206 206 208 210 212 213 212 210 207 203 198 195 187 182 182 187 189 191 192 194 196 198 199 199 199 199 200 201 201 200 201 201 201 201 201 200 200 199 199 199 200 202 204 205 205 204 205 208 213 219 225 230 232 233 233 233 233 232 232 231 231 232 234 235 237
208 207 206 205 206 208 210 212 214 215 215 212 208 202 196 191 184 182 184 187 189 192 196 198 199 199 200 200 199 199 199 200 200 200 201 202 202 202 201 200 199 199 200 201 203 205 206 206 203 202 202 205 211 217 223 228 231 232 233 234 234 233 232 231 231 232 233 235 236
207 206 204 204 206 208 211 213 215 216 216 213 207 200 194 189 185 185 186 189 191 195 199 202 203 202 201 200 199 198 197 198 199 200 201 201 201 201 199 198 199 200 202 204 205 206 206 205 201 199 200 204 211 217 222 228 232 234 234 235 235 234 231 229 229 229 231 232 234
205 203 202 201 204 208 212 214 215 215 214 211 204 197 192 188 187 187 189 191 194 198 202 206 207 206 204 201 198 196 196 196 197 199 200 200 200 198 197 196 199 202 205 207 207 205 203 199 197 197 200 206 214 220 225 229 233 236 237 238 236 233 230 226 225 225 227 229 233
205 203 202 201 202 207 212 213 212 212 211 208 201 195 191 190 190 191 192 196 199 203 206 208 206 206 205 202 199 197 196 195 196 198 199 199 198 197 195 194 199 203 206 208 204 199 195 190 194 198 204 210 218 223 227 229 234 238 240 241 238 233 228 223 221 222 225 228 231
203 204 205 205 205 207 209 209 210 210 210 209 205 201 198 197 196 196 196 200 203 206 209 209 202 199 199 201 200 198 197 196 196 197 198 197 196 195 195 195 199 203 205 200 187 180 179 180 190 199 206 211 218 224 229 231 235 239 240 239 235 230 225 221 220 222 226 232 232
205 207 210 211 210 210 210 210 211 211 211 210 207 205 204 203 201 199 200 202 204 206 208 207 197 192 192 198 199 198 197 197 197 197 196 196 195 196 196 198 199 199 196 181 168 168 172 177 186 194 203 211 217 222 226 230 233 235 235 232 227 224 222 220 221 224 228 234 236
207 211 213 214 214 214 214 213 213 213 212 209 207 206 206 203 199 197 197 199 201 202 202 201 191 185 187 197 199 199 198 198 198 198 198 198 198 198 200 203 200 194 181 167 164 170 177 183 186 190 197 207 216 222 228 231 229 228 226 222 219 219 220 223 228 231 233 237 239
209 212 215 217 217 218 217 216 214 213 212 209 205 204 202 197 193 191 191 192 192 192 193 195 187 182 183 196 201 200 199 197 197 198 200 202 203 203 204 207 201 191 176 168 169 176 184 191 192 192 194 201 212 222 229 233 226 220 216 214 215 217 221 225 233 239 242 243 241
209 212 216 218 219 219 218 216 214 212 210 207 204 199 193 187 185 184 183 184 185 186 187 189 183 178 180 193 199 201 201 199 198 199 202 206 208 208 208 209 204 191 175 168 174 181 189 195 196 195 195 196 208 220 227 229 223 216 211 211 214 218 223 228 236 243 248 249 245
209 212 215 219 220 220 218 215 213 210 207 204 198 191 184 179 179 179 180 183 186 187 187 187 183 181 184 191 193 196 198 200 201 203 206 209 211 211 210 209 205 193 177 171 178 186 192 196 197 195 194 194 204 217 226 226 221 214 211 212 216 222 228 235 242 247 251 251 246
210 213 215 218 219 219 217 214 210 205 200 194 189 184 181 179 180 181 183 187 190 190 188 188 188 189 190 192 191 192 195 199 203 207 209 212 212 211 210 207 207 198 182 175 182 188 193 196 195 193 190 190 199 212 222 224 220 216 215 217 222 227 233 240 245 249 251 250 247
211 214 216 217 217 215 212 207 201 195 190 185 183 183 184 185 188 189 191 192 192 191 191 192 194 195 195 195 192 192 195 201 206 210 211 212 212 211 210 210 214 205 189 178 184 188 192 193 192 189 186 186 196 208 217 220 219 219 222 226 231 235 239 244 248 250 250 248 246
212 214 216 216 211 205 198 190 185 183 182 181 183 186 191 194 197 199 199 197 194 193 194 197 199 201 201 199 195 195 198 206 210 211 210 209 209 210 212 216 219 207 187 179 184 188 189 190 189 186 184 185 193 205 214 216 218 222 227 233 239 243 246 249 250 250 249 247 245
210 212 212 209 198 186 177 174 172 174 179 186 190 196 201 205 207 207 204 200 194 195 198 201 205 207 208 206 201 200 203 209 209 208 205 204 207 211 217 225 221 196 173 177 184 187 188 189 188 185 183 182 192 205 214 217 222 229 236 242 246 249 250 251 250 249 248 247 245
203 204 201 195 180 171 169 171 172 177 185 196 202 207 211 215 214 211 205 199 194 196 200 204 208 212 214 211 206 204 204 204 203 201 200 201 207 213 220 229 222 189 166 177 184 187 188 189 187 183 180 180 193 208 217 221 230 238 244 248 250 251 251 251 250 249 248 247 245
190 187 184 181 172 169 171 176 180 186 194 204 210 214 217 220 216 210 201 192 190 192 195 196 199 203 205 202 199 198 197 195 195 197 200 202 209 215 221 228 220 192 171 178 185 189 190 189 185 181 179 182 197 211 220 229 239 246 249 251 251 251 250 249 249 248 247 247 245
174 170 169 176 173 174 177 183 189 196 202 208 214 217 218 216 211 199 187 179 181 183 184 181 185 191 194 191 190 193 195 195 193 195 198 202 208 213 217 223 219 200 180 181 187 191 192 189 184 180 180 189 203 216 227 238 245 249 250 251 250 250 249 249 248 247 246 244 242
162 160 163 176 180 183 185 186 194 200 206 209 212 212 209 203 190 176 167 169 178 180 180 177 182 187 189 187 190 194 198 198 193 193 195 200 205 209 214 220 222 212 193 181 186 190 193 191 186 183 184 195 208 221 234 244 249 251 251 250 250 250 249 250 248 246 243 240 238
155 159 166 178 185 188 187 182 184 190 197 200 197 192 185 177 161 153 154 165 174 176 176 177 184 186 187 188 192 194 195 196 191 190 193 199 204 209 214 221 230 228 208 175 179 186 192 194 189 187 189 200 214 229 241 249 253 254 254 253 254 253 252 250 248 246 242 238 232
146 153 160 168 170 171 168 163 160 161 165 166 164 158 150 142 134 135 141 154 163 168 174 182 186 184 183 185 190 190 189 190 189 191 196 203 206 211 219 230 244 249 237 168 170 181 193 197 195 193 195 208 225 238 246 252 255 257 257 256 256 255 253 250 247 245 242 238 229
125 128 129 127 127 130 132 131 127 127 129 134 133 127 122 121 128 136 145 158 167 173 179 183 179 175 173 176 182 185 186 188 191 195 201 210 212 217 230 247 263 272 270 175 173 184 196 203 204 204 206 217 234 244 252 256 258 259 259 258 257 256 254 252 248 244 241 239 233